TITAN 3C TRANSTAGE DEB, 43515

Orbit data source: Space-Track

TITAN 3C TRANSTAGE DEB, 43515 is space debris in GEO originally from a launch on Sun, 09 Feb 1969 UTC launched from the Air Force Eastern Test Range (AFETR). Debris objects in space refer to the collection of defunct objects orbiting the Earth. Examples of debris include non-operational satellites, rocket bodies, and fragments generated from explosions, collisions, or faulty payload assembly.

Not visible in the next 10 days
Identifier
43515, 1969-013T
Orbit
GEO
Country
Flag of USUS
Related business
Manufacturer
Martin Marietta
Mission
Spacecraft
Bus & Motor
Unknown
Mass
Unknown
Launch date (UTC)
1969-02-09 (57 years ago)
Launch vehicle
Unknown
Launch site
Air Force Eastern Test Range (AFETR)
Object type
Payload
Rocket body
Debris
Shape & HBR
Unknown shape, 1.1 m
Radar Cross Section
RCS unknown

Expand to show TLE details & history
Last TLE update: 1 day ago

TLE from 1 day ago
0 TITAN 3C TRANSTAGE DEB
1 43515U 69013T   26034.32209560 -.00000221  00000-0  00000-0 0  9995
2 43515   1.4974  54.5879 0313097 150.9770 211.4122  0.95445274 26949
Epoch: 2026-02-03T07:43Z
TLE epoch observation values (Epoch: 2026-02-03T07:43:49.059Z)
Latitude
Longitude
165.74022°
Altitude
38,363.044 km
Speed
2.945 km/s
True Right ascension
03h 40m 47s
True Declination
0° 00' 00"
Sunlit
Object was in daylight at epoch
Visualization orbit readout
Latitude
Unknown
Longitude
Unknown
Altitude
Unknown
Speed
Unknown
Apparent Right ascension
Unknown
Apparent Declination
Unknown
Sunlit
N/A
Visualization observer readout
Local Sidereal Time
14:34:41
Azimuth
Unknown
Elevation
Unknown
Doppler factor
Unknown
Orbital elements
Apogee altitude
38,561.718 km
Perigee altitude
35,833.045 km
Semi-major axis
43,575.519 km
Eccentricity
0.03131
Inclination
1.4974°
RAAN
54.5879°
Arg. of periapsis
150.977°
True anomaly
209.60307°
Mean anomaly
211.4122°
Eccentric anomaly
210.50167°
Mean motion
0.2386 °/min
Orbital period
1,508.77 mins
BSTAR
0
Loading maneuver chart data...
Computing Atmospheric mass density...

Documentation

Showing up to 5 results
|